User: anonymous   Login
Location: Marsån
(66.4167°N, 22.2833°E)
Time: 16:10:24
(UTC+00:00)
Language:

Cosmos 2322 - Orbit

View from above orbital plane
View from above orbital plane
View from above satellite
View from above satellite

Ground track
Ground track

The orbit data is extracted from the following two-line orbital elements,

1 23704U 95058A   24148.93155479 -.00000274  00000-0 -12000-3 0  9996
2 23704  70.9830 126.2947 0011375 224.8186 135.2017 14.13608513474088
Epoch (UTC): 27 May 2024 22:21:26
Eccentricity: 0.0011375
inclination: 70.9830°
perigee height: 839 km
apogee height: 855 km
right ascension of ascending node: 126.2947°
argument of perigee: 224.8186°
revolutions per day: 14.13608513
mean anomaly at epoch: 135.2017°
orbit number at epoch: 47408

The dashed part of the orbit path shows where the satellite is in the earth's shadow,  

DLR